sat.trackr.live / text

‹ back to catalog

STARLINK-35149

NORAD 65512 · 2025-198W

PAYLOAD ACTIVE UNKNOWN

§ Identity

Operator
Country
US
Launch date
2025-09-05
Launch site
AFETR
Launch vehicle
Mass (kg)
RCS (m²)

Purposes: comms

External: N2YO · Heavens-Above · Gunter

§ Orbital elements

Epoch: 2026-05-25T01:27:57.940992Z

Period
93.85 min
Inclination
53.1587°
Eccentricity
0.0001039
Mean motion
15.34402485 rev/d
Perigee alt
462.0 km
Apogee alt
463.4 km
Semi-major
6,840.8 km
B*
6.9191e-4
RAAN
275.4932°
Arg perigee
75.1571°
Mean anomaly
284.9546°
Rev number
4,032

§ Raw data

STARLINK-351491 65512U 25198W   26145.06108728  .00023075  00000+0  69191-3 0  99992 65512  53.1587 275.4932 0001039  75.1571 284.9546 15.34402485 40324

JSON: /api/v1/satellites/65512 · /tle

For live sub-satellite position, see the globe view (requires WebGL).

§ Visibility from observer

Set your observer location to see the next 7 days of passes ≥ 10°. The values pass through the URL so the page stays shareable.

No JS? Fill the form by hand. The geolocation button needs JavaScript.